{"data":{"norad_id":65440,"intl_designator":"2025-194G","name":"STARLINK-35050","alt_names":[],"object_type":"PAYLOAD","status":"ACTIVE","operator":null,"country":"US","launch_date":"2025-09-03","launch_site_code":"AFWTR","launch_vehicle":null,"mission":null,"orbit_class":"UNKNOWN","rcs_meters":null,"size_class":null,"mass_kg":null,"dimensions":null,"purposes":["comms"],"wikipedia_slug":null,"has_3d_model":false,"image_url":null,"decayed_at":null,"tle_current":{"epoch":"2026-05-25T03:06:22.756320Z","epoch_age_seconds":74339,"freshness":"FRESH","line1":"1 65440U 25194G   26145.12943005  .00001759  00000+0  12593-3 0  9996","line2":"2 65440  97.4496 359.4199 0002679  80.1164 280.0365 15.05654057 41157","mean_motion":15.05654057,"eccentricity":0.0002679,"inclination_deg":97.4496,"raan_deg":359.4199,"arg_perigee_deg":80.1164,"mean_anomaly_deg":280.0365,"bstar":0.00012593,"rev_number":4115,"period_min":95.639499213331,"perigee_km":547.64279601516,"apogee_km":551.35462322838,"semimajor_km":6927.6357096218,"source":"CELESTRAK","updated_at":"2026-05-25T13:38:20.806906Z"}}}